Flag for Canada Weather past 2 weeks in Arviat, Nunavut, Canada

Now
48 °F

Sunny.


Feels Like: 44 °F
Forecast: 43 / 51 °F
Wind: 10 mph from East

Location: Arviat Airport

Current Time: Aug 29, 2015 at 11:15:44 PM

Latest Report: Aug 29, 2015 at 8:00 PM


Visibility: 9 mi

Pressure: 29.88 "Hg

Humidity: 87%

Dew point: 45 °F

Location of ArviatLocation

Historic Weather in Arviat — Graph

°F

Arviat temperature yesterday

Maximum temperature yesterday: 54 °F (at 12:00 PM)
Minimum temperature yesterday: 46 °F (at 1:00 AM)
Average temperature yesterday: 50 °F

Past Weeks' High & Low Weather Summary

 TemperatureHumidityPressure
High68 °F (Aug 17, 1:00 PM)100% (Aug 16, 5:00 AM)30.14 "Hg (Aug 16, 5:00 AM)
Low39 °F (Aug 27, 3:00 AM)46% (Aug 17, 1:00 PM)29.66 "Hg (Aug 17, 2:00 PM)
Average49 °F85%29.91 "Hg
* Reported Aug 14 8:00 PM — Aug 29 8:00 PM, Arviat, Weather by CustomWeather, © 2015

Note: Actual official high and low records may vary slightly from our data, if they occured in-between our weather recording intervals... More about our weather records

Advertising

Arviat weather history for previous 24 hours

 ConditionsComfort  
Time TempWeatherWind HumidityBarometerVisibility
8:00 PM
Sat, Aug 29
48 °FSunny.10 mph87%29.88 "Hg9 mi
7:00 PM50 °FSunny.13 mph88%29.87 "Hg9 mi
6:00 PM50 °FSunny.15 mph82%29.86 "Hg9 mi
5:00 PM52 °FSunny.15 mph77%29.85 "Hg9 mi
4:00 PM54 °FSunny.16 mph72%29.85 "Hg9 mi
3:00 PM54 °FPassing clouds.17 mph72%29.85 "Hg15 mi
2:00 PM54 °FPassing clouds.17 mph72%29.85 "Hg15 mi
1:00 PM54 °FPassing clouds.15 mph72%29.84 "Hg15 mi
12:00 PM54 °FPassing clouds.14 mph72%29.84 "Hg15 mi
11:00 AM52 °FPassing clouds.16 mph82%29.82 "Hg15 mi
10:00 AM52 °FPassing clouds.16 mph82%29.81 "Hg15 mi
9:00 AM50 °FPassing clouds.16 mph88%29.80 "Hg15 mi
8:00 AM50 °FSunny.14 mph94%29.79 "Hg9 mi
7:00 AM48 °FSunny.13 mph94%29.77 "Hg9 mi
6:00 AM46 °FClear.12 mph100%29.75 "Hg9 mi
5:00 AM48 °FClear.13 mph94%29.75 "Hg9 mi
4:00 AM48 °FOvercast.14 mph94%29.73 "Hg9 mi
3:00 AM48 °FClear.16 mph94%29.73 "Hg9 mi
2:00 AM48 °FPassing clouds.17 mph94%29.73 "Hg9 mi
1:00 AM48 °FPassing clouds.16 mph94%29.73 "Hg9 mi
12:00 AM50 °FOvercast.16 mph94%29.73 "Hg9 mi
11:00 PM
Fri, Aug 28
50 °FOvercast.16 mph94%29.73 "Hg9 mi
Weather by CustomWeather, © 2015

See weather overviewHow to use our weather pages